Location: Ansan
(43.6898°N, 0.7731°E)
Time: 08:12:50
(UTC+00:00)

Cosmos 2219 Rocket - Pass Details

Date: 15 May 2026
Orbit: 826 x 846 km, 71.0° (Epoch: 5 June)

Event Time Altitude Azimuth Distance (km) Brightness Sun altitude
Rises 21:58:37 0° 335° (NNW) 3,405 6.9 -22.0°
Reaches altitude 10° 22:01:04 10° 337° (NNW) 2,469 5.8 -22.2°
Maximum altitude 22:06:46 82° 65° (ENE) 859 2.1 -22.7°
Enters shadow 22:08:12 52° 144° (SE) 1,039 2.2 -22.8°
